Location: Lane
(33.5226°N, 79.8788°W)
Time: 21:49:37
(UTC+00:00)

Tiros 1 - Pass Details

Date: 03 October 2022
Orbit: 629 x 662 km, 48.4° (Epoch: 08 December)

Event Time Altitude Azimuth Distance (km) Brightness Sun altitude
Exits shadow 09:50:36 12° 326° (NW) 1,938 9.3 -18.4°
Maximum altitude 09:54:33 33° 29° (NNE) 1,088 8.6 -17.6°
Drops below altitude 10° 09:58:47 10° 93° (E) 2,031 11.0 -16.8°
Sets 10:01:17 0° 103° (ESE) 2,932 11.9 -16.2°
